Weather History for Noatak, AK

Change the Weather History Date:

Saturday, March 2, 2013

  Actual Average Record
Temperature  
Mean Temperature -22 °F -  
Max Temperature -11 °F 8 °F 35 °F (2003)
Min Temperature -34 °F -2 °F -34 °F (1999)
Degree Days  
Heating Degree Days 88    
Moisture  
Dew Point -23 °F    
Average Humidity 61    
Maximum Humidity 84    
Minimum Humidity 49    
Precipitation  
Precipitation 0.00 in - - ()
Sea Level Pressure  
Sea Level Pressure 30.22 in    
Wind  
Wind Speed 1 mph (NNW)    
Max Wind Speed 5 mph    
Max Gust Speed -    
Visibility 10 miles    
Events      
Averages and records for this station are not official NWS values.
T = Trace of Precipitation, MM = Missing Value Source: NWS Daily Summary

Daily Weather History Graph

Daily Weather History Graph

Search for Another Location

Airport:

Trip Planner

Search our weather history database for the weather conditions in past years. The results will help you decide how hot, cold, wet, or windy it might be!

Date:

Astronomy

Mar. 02, 2013 Rise Set
Actual Time 9:03 AM AKST 7:06 PM AKST
Civil Twilight 8:08 AM AKST 8:01 PM AKST
Nautical Twilight 7:05 AM AKST 9:04 PM AKST
Astronomical Twilight 5:58 AM AKST 10:11 PM AKST
Moon 2:35 AM AKST (3/2) 8:48 AM AKST (3/2)
Length of Visible Light 11h 52m
Length of Day
10h 02m
Waning Gibbous, 72% of the Moon is Illuminated
Mar 2
Waning Gibbous
Mar 4
Last Quarter
Mar 11
New
Mar 19
First Quarter
Mar 27
Full

Hourly Weather History & Observations

Time (AKST) Temp. Windchill Dew Point Humidity Pressure Visibility Wind Dir Wind Speed Gust Speed Precip Events Conditions
12:36 AM -23.8 °F - - N/A% 30.20 in 10.0 mi Calm Calm - N/A   Clear
1:16 AM -27.4 °F - - N/A% 30.20 in 10.0 mi Calm Calm - N/A   Clear
1:36 AM -29.2 °F - - N/A% 30.20 in 10.0 mi Calm Calm - N/A   Clear
1:56 AM -27.4 °F -41.9 °F - N/A% 30.20 in 10.0 mi NNW 4.6 mph - N/A   Clear
3:56 AM -29.2 °F -41.2 °F - N/A% 30.19 in 10.0 mi North 3.5 mph - N/A   Clear
5:16 AM -27.4 °F - - N/A% 30.18 in 10.0 mi Calm Calm - N/A   Clear
5:36 AM -29.2 °F - - N/A% 30.19 in 10.0 mi Calm Calm - N/A   Clear
5:56 AM -25.6 °F - - N/A% 30.18 in 10.0 mi Calm Calm - N/A   Clear
6:16 AM -27.4 °F - - N/A% 30.18 in 10.0 mi Calm Calm - N/A   Clear
6:36 AM -32.8 °F -48.2 °F - N/A% 30.19 in 10.0 mi North 4.6 mph - N/A   Clear
7:36 AM -32.8 °F - - N/A% 30.19 in 10.0 mi Calm Calm - N/A   Clear
7:56 AM -32.8 °F - - N/A% 30.19 in 10.0 mi Calm Calm - N/A   Clear
8:16 AM -27.4 °F - - N/A% 30.19 in 10.0 mi Calm Calm - N/A   Clear
8:36 AM -25.6 °F - - N/A% 30.19 in 10.0 mi Calm Calm - N/A   Clear
8:56 AM -34.6 °F - - N/A% 30.20 in 10.0 mi Calm Calm - N/A   Clear
9:16 AM -32.8 °F -45.3 °F - N/A% 30.20 in 10.0 mi NNW 3.5 mph - N/A   Clear
9:36 AM -31.0 °F - - N/A% 30.20 in 10.0 mi Calm Calm - N/A   Clear
9:56 AM -32.8 °F - - N/A% 30.21 in 10.0 mi Calm Calm - N/A   Clear
10:16 AM -29.2 °F - - N/A% 30.21 in 10.0 mi Calm Calm - N/A   Clear
10:56 AM -29.2 °F - - N/A% 30.23 in 10.0 mi Calm Calm - N/A   Clear
11:16 AM -29.2 °F - - N/A% 30.23 in 10.0 mi Calm Calm - N/A   Clear
11:36 AM - - - N/A% 30.23 in 10.0 mi Calm Calm - N/A   Clear
12:16 PM -25.6 °F - - N/A% 30.23 in 10.0 mi Calm Calm - N/A   Clear
12:56 PM -18.4 °F - -25.6 °F 70% 30.24 in 10.0 mi Calm Calm - N/A   Clear
1:36 PM -16.6 °F -26.8 °F -20.2 °F 84% 30.24 in 10.0 mi NNW 3.5 mph - N/A   Clear
1:56 PM -16.6 °F - -27.4 °F 58% 30.24 in 10.0 mi Calm Calm - N/A   Clear
2:16 PM -14.8 °F - -23.8 °F 64% 30.24 in 10.0 mi Calm Calm - N/A   Clear
2:36 PM -13.0 °F - -20.2 °F 70% 30.25 in 10.0 mi Calm Calm - N/A   Clear
3:16 PM -11.2 °F - -16.6 °F 77% 30.24 in 10.0 mi Calm Calm - N/A   Clear
3:36 PM -11.2 °F - -23.8 °F 54% 30.24 in 10.0 mi Calm Calm - N/A   Clear
3:56 PM - - - N/A% 30.23 in 10.0 mi Calm Calm - N/A   Clear
4:16 PM -11.2 °F - -22.0 °F 59% 30.23 in 10.0 mi Calm Calm - N/A   Clear
4:36 PM -11.2 °F - -23.8 °F 54% 30.23 in 10.0 mi Calm Calm - N/A   Clear
4:56 PM -11.2 °F - -23.8 °F 54% 30.23 in 10.0 mi Calm Calm - N/A   Clear
5:16 PM -11.2 °F -20.6 °F -20.2 °F 64% 30.24 in 10.0 mi NW 3.5 mph - N/A   Clear
5:36 PM -11.2 °F - -23.8 °F 54% 30.23 in 10.0 mi Calm Calm - N/A   Clear
5:56 PM -11.2 °F - -23.8 °F 54% 30.23 in 10.0 mi Calm Calm - N/A   Clear
6:16 PM -11.2 °F - -25.6 °F 49% 30.23 in 10.0 mi Calm Calm - N/A   Clear
6:36 PM -11.2 °F - -22.0 °F 59% 30.24 in 10.0 mi Calm Calm - N/A   Clear
7:16 PM -11.2 °F - -22.0 °F 59% 30.25 in 10.0 mi Calm Calm - N/A   Clear
8:36 PM -16.6 °F - -27.4 °F 58% 30.24 in 10.0 mi Calm Calm - N/A   Clear